Flag for Brazil Weather past 2 weeks in Pirassununga, São Paulo, Brazil

Now
64 °F

Fog.


Feels Like: 64 °F
Forecast: N/A
Wind: 3 mph from Southeast

Location: Pirassununga Airport

Current Time: Jul 7, 2015 at 8:04:09 PM

Latest Report: Jul 7, 2015 at 7:00 PM


Visibility: 2 mi

Pressure: 30.12 "Hg (27.97 "Hg at 632m altitude)

Humidity: 94%

Dew point: 63 °F

Location of PirassunungaLocation

Historic Weather in Pirassununga — Graph

°F

Pirassununga temperature yesterday

Maximum temperature yesterday: 77 °F (at 3:00 PM)
Minimum temperature yesterday: 52 °F (at 6:00 AM)
Average temperature yesterday: 65 °F

Past Weeks' High & Low Weather Summary

 TemperatureHumidityPressure
High81 °F (Jun 23, 2:00 PM)100% (Jun 23, 6:00 AM)30.45 "Hg (Jun 23, 6:00 AM)
Low43 °F (Jun 28, 6:00 AM)30% (Jun 23, 2:00 PM)29.98 "Hg (Jul 3, 3:00 PM)
Average65 °F73%30.20 "Hg
* Reported Jun 22 6:00 PM — Jul 7 6:00 PM, Pirassununga, Weather by CustomWeather, © 2015

Note: Actual official high and low records may vary slightly from our data, if they occured in-between our weather recording intervals... More about our weather records

Advertising

Pirassununga weather history for previous 24 hours

 ConditionsComfort  
Time TempWeatherWind HumidityBarometerVisibility
6:00 PM
Tue, Jul 7
64 °FFog.2 mph94%30.12 "Hg3 mi
5:00 PM64 °FOvercast.2 mph94%30.12 "Hg4 mi
4:00 PM64 °FMore clouds than sun.5 mph94%30.09 "Hg4 mi
3:00 PM64 °FLight rain. Mostly cloudy.3 mph94%30.09 "Hg2 mi
2:00 PM64 °FLight rain. Mostly cloudy.5 mph94%30.12 "Hg2 mi
1:00 PM64 °FLight rain. Mostly cloudy.2 mph94%30.12 "Hg5 mi
12:00 PM64 °FLight rain. Cloudy.No wind88%30.15 "Hg5 mi
11:00 AM64 °FLight rain. Fog.No wind88%30.15 "Hg3 mi
10:00 AM64 °FMostly cloudy.2 mph88%30.15 "Hg5 mi
9:00 AM63 °FMostly cloudy.9 mph94%30.15 "Hg4 mi
8:00 AM61 °FLight rain. Fog.3 mph94%30.15 "Hg3 mi
7:00 AM59 °FMore clouds than sun.5 mph94%30.12 "HgN/A
6:00 AM59 °FSunny.3 mph94%30.12 "Hg10 mi
11:00 PM
Mon, Jul 6
61 °FClear.2 mph88%30.15 "Hg10 mi
10:00 PM61 °FClear.1 mph88%30.12 "Hg10 mi
9:00 PM64 °FClear.3 mph83%30.12 "Hg10 mi
8:00 PM64 °FClear.6 mph83%30.12 "Hg10 mi
Weather by CustomWeather, © 2015

See weather overviewHow to use our weather pages